SCP
0 0 0 0 0 0 0 0 0 0 0 0 0 0 0 0 0 0 0 0 0 0 0 0 0 0 0 0 0 0 0 0 0 0 0 0 0 0 0 0 0 0 0
0 0 0 0 0 0 0 0 0 0 0 0 0 0 0 0 0 0 0 0 0 0 0 0 0 0 0 0 0 0 0 0 0 0 0 0 0 0 0 0 0 0 0
0 0 0 0 0 0 0 0 0 0 0 0 0 0 0 0 0 0 0 0 0 0 0 0 0 0 0 0 0 0 0 0 0 0 0 0 0 0 0 0 0 0 0
0 0 0 0 0 0 0 0 0 0 0 0 0 0 0 0 0 0 0 0 0 0 0 0 0 0 0 0 0 0 0 0 0 0 0 0 0 0 0 0 0 0 0
0 0 0 0 0 0 0 0 0 0 0 0 0 0 0 0 0 0 0 0 0 0 0 0 0 0 0 0 0 0 0 0 0 0 0 0 0 0 0 0 0 0 0
0 0 0 0 0 0 0 0 0 0 0 0 0 0 0 0 0 0 0 0 0 0 0 0 0 0 0 0 0 0 0 0 0 0 0 0 0 0 0 0 0 0 0
0 0 0 0 0 0 0 0 0 0 0 0 0 0 0 0 0 0 0 0 0 0 0 0 0 0 0 0 0 0 0 0 0 0 0 0 0 0 0 0 0 0 0
0 0 0 0 0 0 0 0 0 0 0 0 0 0 0 0 0 0 0 0 0 0 0 0 0 0 0 0 0 0 0 0 0 0 0 0 0 0 0 0 0 0 0
0 0 0 0 0 0 0 0 0 0 0 0 0 0 0 0 0 0 0 0 0 0 0 0 0 0 0 0 0 0 0 0 0 0 0 0 0 0 0 0 0 0 0
0 0 0 0 0 0 0 0 0 0 0 0 0 0 0 0 0 0 0 0 0 0 0 0 0 0 0 0 0 0 0 0 0 0 0 0 0 0 0 0 0 0 0
0 0 0 0 0 0 0 0 0 0 0 0 0 0 0 0 0 0 0 0 0 0 0 0 0 0 0 0 0 0 0 0 0 0 0 0 0 0 0 0 0 0 0
0 0 0 0 0 0 0 0 0 0 0 0 0 0 0 0 0 0 0 0 0 0 0 0 0 0 0 0 0 0 0 0 0 0 0 0 0 0 0 0 0 0 0
0 0 0 0 0 0 0 0 0 0 0 0 0 0 0 0 0 0 0 0 0 0 0 0 0 0 0 0 0 0 0 0 0 0 0 0 0 0 0 0 0 0 0
0 0 0 0 0 0 0 0 0 0 0 0 0 0 0 0 0 0 0 0 0 0 0 0 0 0 0 0 0 0 0 0 0 0 0 0 0 0 0 0 0 0 0
0 0 0 0 0 0 0 0 0 0 0 0 0 0 0 0 0 0 0 0 0 0 0 0 0 0 0 0 0 0 0 0 0 0 0 0 0 0 0 0 0 0 0
0 0 0 0 0 0 0 0 0 0 0 0 0 0 0 0 0 0 0 0 0 0 0 0 0 0 0 0 0 0 0 0 0 0 0 0 0 0 0 0 0 0 0
0 0 0 0 0 0 0 0 0 0 0 0 0 0 0 0 0 0 0 0 0 0 0 0 0 0 0 0 0 0 0 0 0 0 0 0 0 0 0 0 0 0 0
0 0 0 0 0 0 0 0 0 0 0 0 0 0 0 0 0 0 0 0 0 0 0 0 0 0 0 0 0 0 0 0 0 0 0 0 0 0 0 0 0 0 -0
0 0 0 0 0 0 0 0 0 0 0 0 0 0 0 0 0 0 0 0 0 0 0 0 0 0 0 0 0 0 0 0 0 0 0 0 0 0 0 0 0 0 0
0 0 0 0 0 0 0 0 0 0 0 0 0 0 0 0 0 0 0 0 0 0 0 0 0 0 0 0 0 0 0 0 0 0 0 0 0 0 0 0 0 0 0
0 0 0 0 0 0 0 0 0 0 0 0 0 0 0 0 0 0 0 0 0 0 0 0 0 0 0 0 0 0 0 0 0 0 0 0 0 -0 -0 0 0 0 0
0 0 0 0 0 0 0 0 0 0 0 0 0 0 0 0 0 0 0 0 0 0 0 0 0 0 0 0 0 0 0 0 0 0 0 0 0 -0 -0 -0 0 0 0
0 0 0 0 0 0 0 0 0 0 0 0 0 0 0 0 0 0 0 0 0 0 0 0 0 0 0 0 0 0 0 0 0 0 0 0 -0 -0 -0 -0 0 0 0
0 0 0 0 0 0 0 0 0 0 0 0 0 0 0 0 0 0 0 0 0 0 0 0 0 0 0 0 0 0 0 0 0 0 0 0 -0 -0 -0 -0 -0 0 0
0 0 0 0 0 0 0 0 0 0 0 0 0 0 0 0 0 0 0 0 0 0 0 0 0 0 0 0 0 0 0 0 0 0 0 0 -0 0 0 0 0 0 0
0 0 0 0 0 0 0 0 0 0 0 0 0 0 0 0 0 0 0 0 0 0 0 0 0 0 0 0 0 0 0 0 0 -0 0 0 0 0 0 -0 0 0 0
Wind_Speed
9 9 8 8 8 7 7 8 7 7 6 7 6 6 5 5 4 3 4 4 4 4 4 5 6 5 4 5 5 5 6 5 6 4 2 2 1 1 1 3 4 4 5
10 9 9 9 8 8 9 10 9 8 8 8 7 6 7 6 5 5 5 4 5 5 5 5 6 5 6 5 5 6 6 6 6 6 3 2 2 2 3 4 4 5 6
9 9 10 10 10 10 11 11 9 9 9 8 8 8 8 8 7 6 6 6 6 6 6 6 6 6 6 5 6 6 6 6 6 5 4 2 1 2 3 4 6 5 6
10 10 10 12 12 12 11 10 10 10 9 10 9 9 9 8 8 7 7 7 6 6 6 6 7 7 8 7 6 7 6 6 6 5 4 3 2 3 4 5 5 4 5
10 10 12 12 11 10 10 10 10 10 11 10 9 9 9 8 8 9 8 8 7 7 6 6 7 9 10 8 7 7 7 6 6 6 5 4 4 5 5 4 6 6 5
9 11 11 11 11 11 11 11 10 10 10 9 9 10 9 8 11 14 10 7 7 7 7 6 7 9 11 12 12 12 11 9 8 7 6 7 7 6 6 7 8 7 4
10 11 11 10 11 11 12 10 9 10 9 9 10 10 10 11 13 13 13 8 7 7 7 6 6 6 8 7 9 11 12 13 12 9 9 9 9 9 10 10 7 5 5
11 12 11 11 11 11 10 10 10 8 8 8 9 9 9 11 14 14 13 8 7 8 8 8 7 8 7 8 8 8 8 9 11 10 9 8 8 9 10 9 10 9 8
12 12 11 11 11 11 11 10 9 8 8 8 7 8 9 10 12 13 11 6 6 8 8 7 8 8 9 10 9 8 8 7 8 9 9 9 11 13 13 11 11 11 8
13 12 12 11 11 12 11 10 9 8 9 8 8 8 8 9 10 12 11 5 6 6 6 6 9 9 9 11 10 9 9 7 7 7 8 10 12 14 16 13 12 12 10
13 13 12 11 11 11 11 10 9 8 8 8 8 8 8 9 10 11 11 6 7 6 5 5 5 8 10 11 10 8 9 7 7 8 8 9 9 9 8 7 7 10 10
13 13 12 11 10 10 8 8 8 8 8 7 7 7 6 7 8 9 12 11 9 7 6 5 4 7 9 10 8 7 9 9 6 7 8 8 9 8 8 8 7 6 4
13 12 12 11 9 8 8 8 7 6 6 5 5 6 5 5 6 9 10 11 12 7 5 6 6 6 6 6 7 9 10 7 7 8 8 7 7 8 9 8 9 8 9
13 12 10 9 8 8 6 6 5 5 5 5 5 5 5 4 4 4 4 5 7 7 5 5 6 5 4 4 5 7 6 6 7 7 7 7 7 8 9 8 8 8 8
12 10 9 8 7 7 5 5 5 5 5 5 5 4 5 5 6 8 6 5 5 5 5 3 3 3 4 4 4 5 5 6 6 6 8 8 8 8 8 7 7 7 6
10 9 7 6 6 5 5 4 4 4 5 7 7 5 5 5 5 8 9 7 7 8 5 4 4 4 4 5 6 6 6 7 7 8 8 8 9 9 8 6 6 7 7
10 9 7 6 6 5 5 4 2 1 2 1 2 5 5 3 4 6 7 7 7 8 4 4 4 4 4 5 6 6 6 7 8 8 9 9 8 9 9 8 7 7 7
10 9 8 6 5 4 3 3 1 1 1 2 4 3 3 4 5 7 8 6 4 4 3 4 4 4 4 5 6 7 8 8 8 8 9 9 9 9 9 9 8 9 8
8 6 5 5 4 4 3 2 1 2 2 3 3 4 6 6 6 6 6 3 4 4 3 3 4 4 5 5 6 7 8 8 9 8 8 9 9 9 8 8 8 10 9
7 10 8 5 4 4 3 2 2 3 3 3 3 3 2 2 3 3 2 2 2 3 3 4 4 5 6 6 7 7 8 8 9 8 8 8 8 8 9 10 9 9 7
6 7 9 5 4 4 3 2 2 2 3 3 2 2 2 2 2 2 2 2 2 3 4 5 5 6 6 6 7 8 9 8 8 8 8 8 8 7 7 8 8 8 7
5 4 4 4 4 3 3 2 2 3 3 3 3 2 2 1 2 2 1 2 2 2 3 5 5 5 6 7 7 8 8 8 8 8 8 8 7 7 7 7 7 7 7
5 4 3 3 3 4 4 3 3 3 3 3 3 2 1 1 1 1 1 2 2 3 4 5 6 6 6 6 7 8 9 9 8 9 9 8 7 7 7 8 9 8 8
5 4 4 3 3 3 3 3 3 3 3 3 2 2 1 1 1 2 2 2 2 3 3 4 5 8 9 7 6 6 7 8 9 9 12 10 8 7 7 7 8 9 8
4 4 4 3 3 3 3 3 3 3 3 2 2 1 1 1 2 2 2 2 3 3 4 5 5 7 10 10 8 7 10 11 9 9 9 8 9 9 8 8 7 8 7
5 5 4 3 3 3 3 3 3 3 2 2 2 2 2 2 2 2 2 2 2 3 4 4 6 8 9 8 9 11 11 10 10 10 8 8 9 8 8 7 9 8 8
Wind_Direction
263 258 256 254 249 243 240 241 238 236 230 232 238 245 252 253 244 241 250 249 239 240 236 227 231 225 217 214 208 207 211 215 243 254 240 255 261 181 76 69 63 62 65
260 259 258 258 254 245 242 243 237 235 234 230 231 234 244 248 240 233 242 247 242 240 240 233 232 223 222 217 212 214 215 213 225 246 236 223 229 170 128 105 88 79 75
264 261 262 262 258 252 248 245 239 234 235 231 224 229 235 237 238 235 232 234 238 241 239 236 236 227 230 224 218 219 218 217 216 227 227 207 204 161 129 107 97 87 82
273 268 265 262 257 254 251 247 242 236 233 233 228 227 230 231 232 234 232 233 235 240 239 236 236 230 230 228 223 220 214 216 214 217 216 206 190 165 145 135 117 92 83
279 275 269 266 263 260 256 252 246 237 235 232 229 228 228 226 230 227 225 229 232 240 243 241 241 238 234 227 221 216 207 210 209 209 207 198 185 172 164 145 129 114 81
280 278 277 274 271 267 262 257 252 245 238 229 227 227 226 228 228 222 214 220 225 234 245 250 252 250 243 234 226 216 207 206 207 206 205 200 191 173 154 149 143 138 120
280 280 278 276 275 273 271 265 254 248 243 233 228 224 226 229 229 230 226 216 221 230 238 246 255 249 238 235 228 220 218 217 212 208 206 201 185 172 161 158 157 137 123
285 283 282 280 277 273 269 266 261 255 245 239 233 227 225 231 228 229 231 223 222 231 236 239 246 251 239 226 223 219 220 219 216 215 214 202 183 170 164 153 138 114 101
289 286 283 280 279 276 270 266 263 257 252 244 237 228 223 233 229 227 222 210 221 234 238 240 240 246 237 218 215 215 216 218 215 210 200 182 167 159 149 139 139 136 129
290 287 283 277 274 272 268 265 261 254 251 248 244 233 225 230 230 226 213 203 220 233 240 243 238 240 237 215 214 211 210 203 183 173 170 163 162 158 157 157 153 149 141
294 290 286 279 272 268 265 261 257 251 248 243 244 239 230 229 231 228 213 201 212 223 233 240 240 234 229 218 214 213 204 182 173 166 158 154 153 155 155 149 150 153 150
297 294 290 283 277 277 264 261 256 247 242 240 240 243 235 229 226 228 219 209 203 213 226 231 238 232 222 212 210 205 182 170 165 157 152 151 151 150 147 139 125 112 103
302 299 296 291 282 276 270 266 260 243 234 232 227 231 233 223 220 222 221 214 208 209 223 225 231 226 212 206 204 186 175 172 162 157 152 146 140 137 131 122 109 99 93
306 305 303 299 293 286 272 262 255 242 226 221 224 222 223 218 211 203 202 202 203 209 217 218 214 213 205 182 172 177 180 169 158 150 138 127 124 131 135 136 134 129 117
310 308 309 303 299 296 285 266 256 243 229 219 219 211 209 218 215 196 185 188 188 190 180 185 190 187 185 174 170 166 160 150 139 133 132 132 132 130 131 135 136 133 129
315 315 313 309 305 301 298 295 267 251 249 236 231 219 221 226 211 193 191 188 180 170 173 187 192 188 180 175 165 153 152 149 140 134 134 134 136 136 133 136 143 145 141
316 314 312 313 312 311 311 310 317 22 63 79 233 227 226 212 190 175 170 170 172 169 185 195 191 180 171 165 156 149 145 140 136 135 134 134 134 136 138 141 144 143 140
319 316 320 316 316 316 318 323 328 23 69 63 49 69 141 139 138 141 143 140 155 183 197 187 177 167 158 149 145 140 135 132 130 130 130 133 137 138 139 142 145 145 142
322 319 321 324 328 330 335 351 20 67 82 85 82 71 89 105 114 134 149 161 167 173 180 174 162 149 140 136 135 134 133 131 130 130 132 135 138 137 137 139 138 141 142
321 329 339 338 342 354 7 33 57 76 86 89 91 98 110 109 116 139 167 166 156 156 161 155 146 136 134 136 134 133 130 129 132 132 134 136 138 139 140 142 146 151 153
321 328 341 346 353 3 17 40 67 85 88 90 88 88 99 114 128 147 153 149 145 143 142 139 136 136 137 139 135 136 135 134 135 136 137 140 141 140 142 146 151 152 146
324 327 337 345 356 13 23 41 70 83 88 90 87 91 95 92 116 129 138 146 143 135 132 134 138 142 145 146 144 142 140 138 140 141 141 142 143 144 145 148 153 155 154
333 336 346 358 8 21 33 46 65 76 79 82 86 90 93 73 95 116 132 141 145 137 128 130 136 139 142 145 149 149 148 149 149 148 145 146 147 150 151 154 158 160 167
343 350 357 6 19 32 42 52 63 72 79 85 85 85 81 77 93 109 110 115 121 118 123 131 137 143 144 143 145 147 145 143 145 149 151 151 153 155 156 160 166 173 173
353 1 5 14 30 46 54 61 68 74 75 73 73 71 56 56 66 73 88 107 115 119 127 133 135 142 149 148 145 140 138 140 144 147 149 150 154 158 162 165 167 168 170
4 13 17 24 39 50 56 65 71 76 70 66 61 56 54 48 44 43 61 84 94 105 117 128 140 144 147 148 144 138 141 144 146 147 150 150 153 160 164 167 170 173 174